Location: Miles
(41.4492°N, 81.6087°W)
Time: 07:55:13
(UTC+00:00)

Vanguard 1 Rocket - Pass Details

Date: 13 September 2024
Orbit: 650 x 4218 km, 34.3° (Epoch: 05 October)

Event Time Altitude Azimuth Distance (km) Brightness Sun altitude
Rises 07:46:18 0° 209° (SSW) 5,114 - -34.3°
Reaches altitude 10° 07:49:26 10° 200° (SSW) 4,520 - -33.9°
Exits shadow 07:55:29 29° 175° (S) 3,873 10.2 -33.1°
Maximum altitude 08:01:39 38° 138° (SE) 4,029 10.5 -32.2°
Drops below altitude 10° 08:21:25 10° 81° (E) 7,225 12.7 -29.3°
Sets 08:28:11 0° 75° (ENE) 8,437 13.4 -28.3°
